Погода в Килларней

Ирландия     52°03′36″N   9°30′21″W
темп.,
°C
ветер,
м/с
пор.,
м/с
влажн.,
%
обл.,
%
осадки,
мм/ч
давл.,
гПа
погр.,
м
12 августа, пт
пт1201:00+14ссв11880 0.0 102210
04:00+14в11850 0.0 102110
07:00+15вюв11794 0.0 102011
10:00+22вюв11540 0.0 1020281
13:00+26вюв12400 0.0 10191059
16:00+28св02372 0.0 10171751
19:00+25ссз12592 0.0 1017459
22:00+17с11840 0.0 101811
13 августа, сб
сб1301:00+16всв11850 0.0 101711
04:00+15вюв11841 0.0 101611
07:00+15всв11751 0.0 101611
10:00+22св115699 0.0 1016218
13:00+27ссв12425 0.0 10141009
16:00+28с22371 0.0 10131820
19:00+25ссз23615 0.0 1013513
22:00+18ссз118443 0.0 101411
14 августа, вс
вс1401:00+16ссз218823 0.0 101312
04:00+15с119257 0.0 101112
07:00+16с119116 0.0 101114
10:00+21с237137 0.0 1010388
13:00+24с3259100 0.0 1009899
16:00+23сз3267100 2.9 1008524
19:00+17ссз2393100 4.9 1007231
22:00+14сз229891 0.0 100862
15 августа, пн
пн1501:00+13зсз239964 0.0 100798
04:00+13зсз119773 0.0 100661
07:00+12сз119833 0.0 100624
10:00+16з118499 0.0 1006474
13:00+17ссз228199 0.3 1005527
16:00+16сз2384100 2.9 1006444
19:00+16сз2482100 3.6 1007704
22:00+14с3794100 0.3 1008525
16 августа, вт
вт1601:00+13ссз41095100 0.5 1009738
04:00+13с41094100 0.1 1009836
07:00+12с41094100 0.4 1011784
10:00+13с6108375 0.2 1012938
13:00+16с8105934 0.3 10121304
16:00+18ссз8105754 0.0 10131462
19:00+15ссз7107014 0.0 1014992
22:00+11ссз3108487 0.0 1016341